Location: *
(32.8140°S, 174.6161°E)
Time: 05:28:05
(UTC+00:00)

Cosmos 1072 Rocket - Pass Details

Date: 10 December 2019
Orbit: 949 x 1007 km, 82.9° (Epoch: 21 January)

Event Time Altitude Azimuth Distance (km) Brightness Sun altitude
Rises 15:40:58 0° 186° (S) 3,704 8.0 -15.6°
Reaches altitude 10° 15:43:31 10° 186° (S) 2,742 7.3 -15.2°
Maximum altitude 15:49:48 90° 160° (SSE) 974 4.5 -14.2°
Drops below altitude 10° 15:55:57 10° 4° (N) 2,677 6.5 -13.2°
Sets 15:58:24 0° 4° (N) 3,611 7.1 -12.8°
